Regional Weather Roundup
Issued by NWS Wakefield, VA

Home | Current Version | Previous Version | Graphics & Text | Print | Product List | Glossary On
Versions: 1 2 3 4 5 6 7 8 9 10 11 12 13 14 15 16 17 18 19 20 21 22 23 24 25 26 27
000
ASUS41 KAKQ 241715
RWRAKQ

REGIONAL WEATHER ROUNDUP
NATIONAL WEATHER SERVICE WAKEFIELD VA
1200 PM EST FRI NOV 24 2017

Note: "fair" indicates few or no clouds below 12,000 feet with no
significant weather and/or obstructions to visibility. * = Denotes
station may not report precipitation (e.g., rain,snow,etc.),
thunder or fog.

VAZ042-051-052>054-056-241800-
NORTHERN VIRGINIA

CITY           SKY/WX    TMP DP  RH WIND       PRES   REMARKS
WASH NATIONAL  SUNNY     49  33  54 S10       30.06F
DULLES         SUNNY     50  28  42 S9        30.04F
FORT BELVOIR   SUNNY     49  27  43 S5        30.05F
QUANTICO       SUNNY     47  34  60 S8        30.07F
FREDERICKSBRG* SUNNY     50  31  48 SW5       30.05F
STAFFORD*      SUNNY     50  29  44 S8        30.09F
WARRENTON      NOT AVBL
CULPEPER*      SUNNY     51  27  40 S7        30.05F
MANASSAS*      SUNNY     50  29  44 S6        30.04F
LEESBURG*      SUNNY     50  32  50 S9        30.04F
WINCHESTER     SUNNY     48  28  46 CALM      30.00F
FRONT ROYAL*   SUNNY     50  28  43 CALM      30.00F
LURAY*         SUNNY     50  28  43 SW3       30.00F
$$

VAZ048-049-060>072-079>083-241800-
CENTRAL AND SOUTH CENTRAL VIRGINIA

CITY           SKY/WX    TMP DP  RH WIND       PRES   REMARKS
RICHMOND       MOSUNNY   51  28  41 VRB3      30.06F
CHESTERFIELD*  NOT AVBL
PETERSBURG*    SUNNY     48 -26   4 CALM      30.06F
HANOVER        SUNNY     50  27  40 CALM      30.07F
TAPPAHANNOCK*    N/A    N/A N/A N/A MISG        N/A
QUINTON*       FAIR      48  29  47 NW5       30.06F
CHARLOTTSVILLE SUNNY     50  27  40 VRB5      30.03F
GORDONSVILLE*  SUNNY     49  30  48 S7        30.04F
ORANGE*        SUNNY     50  30  46 CALM      30.05F
LOUISA*        SUNNY     49  28  43 S5        30.08F
BUMPASS*       FAIR      48  27  43 S5        30.05F
FARMVILLE*     SUNNY     53  33  46 CALM      30.04F
CREWE*         FAIR      50  29  44 SE3       30.05F
FORT PICKETT*  FAIR      51  28  41 S3        30.05F
CHASE CITY*    FAIR      51  29  42 CALM      30.04F
CLARKSVILLE*   FAIR      50  32  50 CALM      30.04F
SOUTH HILL*    SUNNY     50  31  46 N5        30.10F
LAWRENCEVILLE* FAIR      51  25  36 N3        30.05F
EMPORIA*       SUNNY     50  27  40 NE3       30.06F
$$

VAZ088>098-241800-
SOUTHEAST VIRGINIA

CITY           SKY/WX    TMP DP  RH WIND       PRES   REMARKS
NORFOLK        SUNNY     51  38  60 N9        30.04F
VIRGINIA BEACH MOSUNNY   53  35  50 NE8       30.03F
NORFOLK NAVAL  MOSUNNY   51  36  56 NE9       30.05F
WEST POINT*    SUNNY     49  28  44 W5        30.08F
SALUDA*        FAIR      48  28  46 E3        30.07F
NEWPORT NEWS   SUNNY     51  33  50 E6        30.06F
LANGLEY AFB    SUNNY     50  34  55 NE7       30.05F
FORT EUSTIS    SUNNY     49  35  58 W6        30.03F
WILLIAMSBURG*  SUNNY     55  32  41 CALM      30.06F
HR EXEC AP*    NOT AVBL
FRANKLIN*      SUNNY     52  30  43 E7        30.05F
US460-WAKEFLD  SUNNY     52  31  44 VRB3      30.05F
$$

VAZ020-022-025-037-045-241800-
WEST CENTRAL AND SOUTHWEST VIRGINIA

CITY           SKY/WX    TMP DP  RH WIND       PRES   REMARKS
STAUNTON*      SUNNY     50  23  34 SW7       30.01F
WAYNESBORO*    SUNNY     51  21  30 CALM      30.00F
HOT SPRINGS VA SUNNY     47   4  16 CALM      29.98F
LYNCHBURG      SUNNY     48  28  46 S5        30.03F
DANVILLE       SUNNY     49  31  49 CALM      30.05F
SOUTH BOSTON*  FAIR      52  28  39 CALM      30.05F
MARTINSVILLE   SUNNY     52  30  42 SE3       30.05F
ROANOKE        SUNNY     52  29  41 CALM      30.03F
BLACKSBURG     SUNNY     50  26  39 CALM      30.03F
DUBLIN*        SUNNY     51  28  40 S3        30.02F
MARION*        SUNNY     53  28  37 W9        30.01F
HILLSVILLE*    SUNNY     50  22  33 W3        29.99F
RICHLANDS*     FAIR      51  27  39 S3        29.98F
WISE*          SUNNY     54  32  43 SW7       29.98F
ABINGDON*      SUNNY     55  34  45 SW5       29.99F
$$

MDZ021>025-VAZ099-100-241800-
SOUTHERN MARYLAND AND THE DELMARVA PENINSULA

CITY           SKY/WX    TMP DP  RH WIND       PRES   REMARKS
PATUXENT RIVER SUNNY     48  32  53 E8        30.06F
BAY BRIDGE APT SUNNY     48  28  46 SW6       30.07F
LEONARDTOWN    SUNNY     48  32  53 CALM      30.07F
DOVER          SUNNY     50  37  61 S5        30.05F
GEORGETOWN     SUNNY     50  27  40 VRB3      30.06F
EASTON         SUNNY     50  34  53 SW7       30.09F
CAMBRIDGE      SUNNY     50  30  46 CALM      30.06F
SALISBURY      SUNNY     49  27  42 CALM      30.06F
OCEAN CITY     SUNNY     49  31  49 E5        30.07F
WALLOPS ISLAND SUNNY     49  29  46 MISG      30.07F
ACCOMACK*      SUNNY     51  29  43 E3        30.06F
$$

NCZ012>017-030>032-241800-
NORTH CENTRAL AND EASTERN NORTH CAROLINA

CITY           SKY/WX    TMP DP  RH WIND       PRES   REMARKS
ROANOKE RAPIDS FAIR      50  30  46 NE7       30.04F
RALEIGH        MOSUNNY   51  22  31 E6        30.03F
ELIZABETH CITY SUNNY     55  41  59 NE13      30.03F
AHOSKIE*       SUNNY     49  31  48 N6        30.03F
EDENTON*       SUNNY     54  39  57 CALM      30.04F
CURRITUCK*     SUNNY     53  38  58 NE7       30.05F
KILL DEVIL HLS SUNNY     52  38  59 N3        30.01F
MANTEO         SUNNY     53  41  64 NE9       30.02F
CAPE HATTERAS  CLOUDY    58  51  78 NE9       29.98F
TARBORO*       NOT AVBL
GOLDSBORO      SUNNY     52  29  41 N5        30.00F
WASHINGTON     SUNNY     53  35  52 E6        30.03F
GREENVILLE     SUNNY     52  32  46 E5        30.04F
NEW BERN       PTSUNNY   49  41  74 N8        30.02F
WILMINGTON     CLOUDY    53  34  48 N8        29.99F
$$

VAZ048-241800-
ELSEWHERE

CITY           SKY/WX    TMP DP  RH WIND       PRES   REMARKS
HARRISBURG PA  SUNNY     45  31  58 S3        30.01F
BALTIMORE      SUNNY     50  27  40 SW6       30.04F
ANNAPOLIS      SUNNY     48  37  65 SE8       30.05F
ANDREWS AFB    SUNNY     51  27  40 S7        30.04F
PHILADELPHIA   SUNNY     48  23  37 W7        30.05F
HENDERSON NC   SUNNY     49  22  34 CALM      30.04F
GREENSBORO     MOSUNNY   53  32  44 CALM      30.02F
ROCKY MOUNT    SUNNY     50  29  44 N8        30.03F
$$

VAZ100-241800-
MARINE

STATION/POSITION TIME  TEMP    WIND        PRES    WAVE   SWELL
                       AIR SEA DIR/SP/G            HT/PER HT/PER
                 (UTC) (F)     (DEG/KT/KT) (MB)    (FT/S) (FT/S)
BRANDYWINE LGT   1636   45     230/  5/  6 1018.5F
CAPE MAY NJ      1636   46 50  260/  5/  5 1017.7F
LEWES DE         1636   46 50  360/  3/  3 1017.9F
15NM E FENWICK I 1650   47 57  340/  2/  6 1018.4F   3/10   3/10
OCEAN-CITY-INLET 1636   45 52   10/  3/  5 1018.8F
WACHAPREAGUE VA  1636   48 47   60/  3/  7 1018.2F
THOMAS POINT MD  1700   46 51  170/  4/  4   N/A
GOOSES REEF MD   1650   47     160/  6/  6 1022.5F
COVE POINT MD    1636   45     170/  7/  9 1018.8F
SOLOMONS ISLAND  1636   46 53   90/  2/  3 1017.7F
BISHOPS HEAD MD  1636   45 45  150/  2/  3 1018.7F
PINEY POINT MD   1636           10/  1/  2   N/A
POTOMAC MD       1650   45     280/  2/  4 1017.8F
CAMBRIDGE MD     1636   47 49              1018.8F
LEWISETTA VA     1636   45 48   70/  4/  4 1018.5F
RAPPAHANNOCK LGT 1636          350/  6/  7 1018.9F
STINGRAY PT      1650   46      40/  4/  4 1018.6F
YORK RVR RNG VA  1636   47      60/  4/  5 1018.7F
YORKTOWN VA      1636   46 53   50/  4/  6 1017.9F
JAMESTOWN VA     1650          250/  2/  4   N/A
DOMINION TERM VA 1636   49      40/  1/  4 1017.9F
KIPTOPEKE VA     1636      52   90/  7/ 10   N/A
CAPE HENRY VA    1636   49      50/  5/  8   N/A
WILLOUBY STN VA  1636   47      50/  7/  8 1017.6F
S CRANEY ISL VA  1636   49      40/  6/  8 1017.5F
CAPE HENRY BUOY  1700      59                N/A     3/10   2/11
1ST LANDING BUOY 1650   48      50/  6/ 10 1017.5F
CAPE CHARLES BUO 1651      58                N/A     3/11   2/11
64NM E OF VA BCH 1650   53 60   50/  8/ 12 1017.0F   5/11   5/11
DUCK PIER NC     1636   51 57   50/ 11/ 13 1016.4F
44100 DUCK FRF   1545      60                N/A     5/10   2/11
44056 DUCK FRF   1700      60                N/A     4/ 9   2/11
OREGON INLET NC  1636   54 55   30/ 11/ 15 1016.0F
HATTERAS NC      1636   55 57   30/  9/ 12 1015.3F
DIAMOND SHLS NC  1700   62 72   30/ 19/ 23 1014.8
CAPE LOOKOUT NC  1700           20/ 15/ 19 1015.0F
$$




USA.gov is the U.S. government's official web portal to all federal, state and local government web resources and services.